Starlink 5850

operational
NORAD ID: 57049 Int'l Des: 2023-088 Owner: SPXS Country: US Constellation: starlink
LEOCIRCULAR

About Starlink 5850

Description loading...

Live Position

Loading 3D Globe...

Upcoming Passes

Altitude History

Altitude vs Time

uPlot chart will show altitude changes over time

Two-Line Element Set

1 57049U 23088B 26102.50447591 .00000760 00000-0 38038-4 0 9991
2 57049 43.0013 279.7217 0001966 263.0339 97.0288 15.26741012155690
Epoch: Apr 12, 2026 • Age: 5 hours

Current Status

Altitude 486.6 km
Velocity 7.63 km/s
Sub-Earth Point 26.43°N, 145.24°W
Launch Date Jun 22, 2023
Age 2.8 years
Type internet

Technical Details

Classification Payload
Mass 305.00 kg
Dry Mass 290.00 kg
Total Mass 305.00 kg
Length 0.20 m
Diameter 2.80 m
Span 9.00 m
Shape Box + pan
Manufacturer SPXS
Bus Type Starlink
Phase Status In Orbit
Owner/State SPXS/US

Large Constellations

Loading constellations...